Ketchikan, AK

4:55 PM AKST on February 20, 2019 (GMT -0900)
Ketchikan International

Weather History for PAKT - February, 2019

Change the Weather History Date:

Tuesday, February 12, 2019

  Actual Average Record
Temperature  
Mean Temperature 24 °F -  
Max Temperature 33 °F 40 °F 51 °F (1963)
Min Temperature 15 °F 30 °F 6 °F (1975)
Degree Days  
Heating Degree Days 41    
Moisture  
Dew Point 9 °F    
Average Humidity 51    
Maximum Humidity 73    
Minimum Humidity 32    
Precipitation  
Precipitation 0.00 in - - ()
Sea Level Pressure  
Sea Level Pressure 29.95 in    
Wind  
Wind Speed 3 mph (SSE)    
Max Wind Speed 7 mph    
Max Gust Speed -    
Visibility 10 miles    
Events      
Averages and records for this station are not official NWS values.
T = Trace of Precipitation, MM = Missing Value Source: NWS Daily Summary

Daily Weather History Graph

Daily Weather History Graph

Search for Another Location

Airport or City:

Astronomy

Feb. 12, 2019 Rise Set
Actual Time 7:16 AM AKST 4:46 PM AKST
Civil Twilight 6:38 AM AKST 5:24 PM AKST
Nautical Twilight 5:55 AM AKST 6:07 PM AKST
Astronomical Twilight 5:13 AM AKST 6:50 PM AKST
Moon 10:17 AM AKST (2/12) 12:34 AM AKST (2/12)
Length of Visible Light 10h 46m
Length of Day
9h 29m
Waxing Crescent, 49% of the Moon is Illuminated
Feb 12
Waxing Crescent
Feb 12
First Quarter
Feb 19
Full
Feb 26
Last Quarter
Mar 6
New

Hourly Weather History & Observations

Time (AKST) Temp. Windchill Dew Point Humidity Pressure Visibility Wind Dir Wind Speed Gust Speed Precip Events Conditions
12:53 AM 27.0 °F 19.5 °F 3.9 °F 37% 30.06 in 10.0 mi WNW 6.9 mph - N/A   Clear
1:53 AM 24.1 °F 18.2 °F 7.0 °F 48% 30.05 in 10.0 mi NNW 4.6 mph - N/A   Clear
2:53 AM 19.9 °F - 10.9 °F 68% 30.06 in 10.0 mi Calm Calm - N/A   Clear
3:53 AM 21.0 °F 16.2 °F 6.1 °F 53% 30.03 in 10.0 mi SE 3.5 mph - N/A   Clear
4:53 AM 17.1 °F 11.7 °F 8.1 °F 68% 30.04 in 10.0 mi WSW 3.5 mph - N/A   Clear
5:53 AM 15.1 °F - 7.0 °F 70% 30.03 in 10.0 mi Calm Calm - N/A   Clear
6:02 AM 17.1 °F 11.7 °F 9.0 °F 71% 30.02 in 10.0 mi WSW 3.5 mph - N/A   Clear
6:53 AM 17.6 °F 12.3 °F 6.8 °F 63% 30.02 in 10.0 mi SSW 3.5 mph - N/A   Clear
7:53 AM 15.8 °F - 8.6 °F 73% 30.02 in 10.0 mi Calm Calm - N/A   Clear
8:53 AM 24.8 °F 19.1 °F 12.2 °F 59% 30.01 in 10.0 mi SSE 4.6 mph - N/A   Clear
9:53 AM 27.0 °F 21.6 °F 10.9 °F 51% 29.99 in 10.0 mi ESE 4.6 mph - N/A   Clear
10:53 AM 28.4 °F 24.6 °F 15.8 °F 59% 29.97 in 10.0 mi SE 3.5 mph - N/A   Clear
11:53 AM 30.9 °F 27.5 °F 14.0 °F 50% 29.97 in 10.0 mi ESE 3.5 mph - N/A   Clear
12:53 PM 33.1 °F - 8.1 °F 35% 29.95 in 10.0 mi Calm Calm - N/A   Clear
1:53 PM 32.0 °F 28.7 °F 5.0 °F 32% 29.93 in 10.0 mi SE 3.5 mph - N/A   Clear
2:53 PM 30.9 °F - 10.0 °F 42% 29.91 in 10.0 mi Calm Calm - N/A   Mostly Cloudy
3:53 PM 32.0 °F - 7.0 °F 35% 29.90 in 10.0 mi Calm Calm - N/A   Overcast
4:53 PM 30.9 °F - 7.0 °F 37% 29.88 in 10.0 mi Calm Calm - N/A   Overcast
5:53 PM 28.0 °F - 15.1 °F 58% 29.88 in 10.0 mi Calm Calm - N/A   Overcast
6:53 PM 28.9 °F 25.2 °F 8.1 °F 41% 29.86 in 10.0 mi South 3.5 mph - N/A   Mostly Cloudy
7:53 PM 28.0 °F - 9.0 °F 45% 29.86 in 10.0 mi Calm Calm - N/A   Overcast
8:53 PM 28.0 °F 24.2 °F 12.9 °F 53% 29.85 in 10.0 mi South 3.5 mph - N/A   Overcast
9:53 PM 28.9 °F - 10.9 °F 47% 29.83 in 10.0 mi Calm Calm - N/A   Overcast
10:53 PM 28.9 °F 25.2 °F 10.9 °F 47% 29.82 in 10.0 mi SE 3.5 mph - N/A   Overcast
11:53 PM 28.9 °F 25.2 °F 10.0 °F 45% 29.81 in 10.0 mi SE 3.5 mph - N/A   Overcast